Time,TemperatureF,DewpointF,PressureIn,WindDirection,WindDirectionDegrees,WindSpeedMPH,WindSpeedGustMPH,Humidity,HourlyPrecipIn,Conditions,Clouds,dailyrainin,SolarRadiationWatts/m^2,SoftwareType,DateUTC
2013-03-09 00:01:00,51.0,36.0,-100.00,WNW,285,12.0,19.0,57,0.00,,,0.07,1.000000,,2013-03-09 07:01:00,
2013-03-09 00:11:00,51.0,36.0,-100.00,WNW,285,12.0,19.0,57,0.00,,,0.07,1.000000,,2013-03-09 07:11:00,
2013-03-09 00:32:00,48.0,36.0,-100.00,WSW,257,9.0,16.0,64,0.00,,,0.07,1.000000,,2013-03-09 07:32:00,
2013-03-09 00:42:00,48.0,36.0,-100.00,WSW,257,9.0,16.0,64,0.00,,,0.07,1.000000,,2013-03-09 07:42:00,
2013-03-09 00:52:00,48.0,36.0,-100.00,WSW,257,9.0,16.0,64,0.00,,,0.07,1.000000,,2013-03-09 07:52:00,
2013-03-09 01:01:00,48.0,36.0,-100.00,WSW,257,9.0,16.0,64,0.00,,,0.07,1.000000,,2013-03-09 08:01:00,
2013-03-09 01:11:00,48.0,36.0,-100.00,WSW,257,9.0,16.0,64,0.00,,,0.07,1.000000,,2013-03-09 08:11:00,
2013-03-09 01:42:00,48.0,36.0,-100.00,WSW,251,11.0,15.0,64,0.00,,,0.07,1.000000,,2013-03-09 08:42:00,
2013-03-09 01:52:00,48.0,36.0,-100.00,WSW,251,11.0,15.0,64,0.00,,,0.07,1.000000,,2013-03-09 08:52:00,
2013-03-09 02:01:00,48.0,36.0,-100.00,WSW,251,11.0,15.0,64,0.00,,,0.07,1.000000,,2013-03-09 09:01:00,
2013-03-09 02:11:00,48.0,36.0,-100.00,WSW,251,11.0,15.0,64,0.00,,,0.07,1.000000,,2013-03-09 09:11:00,
2013-03-09 02:32:00,45.0,36.0,-100.00,WNW,286,5.0,11.0,70,0.00,,,0.07,1.000000,,2013-03-09 09:32:00,
2013-03-09 02:42:00,45.0,36.0,-100.00,WNW,286,5.0,11.0,70,0.00,,,0.07,1.000000,,2013-03-09 09:42:00,
2013-03-09 02:52:00,45.0,36.0,-100.00,WNW,286,5.0,11.0,70,0.00,,,0.07,1.000000,,2013-03-09 09:52:00,
2013-03-09 03:01:00,45.0,36.0,-100.00,WNW,286,5.0,11.0,70,0.00,,,0.07,1.000000,,2013-03-09 10:01:00,
2013-03-09 03:11:00,45.0,36.0,-100.00,WNW,286,5.0,11.0,70,0.00,,,0.07,1.000000,,2013-03-09 10:11:00,
2013-03-09 03:42:00,48.0,35.0,-100.00,SSW,211,3.0,6.0,61,0.00,,,0.07,1.000000,,2013-03-09 10:42:00,
2013-03-09 03:52:00,48.0,35.0,-100.00,SSW,211,3.0,6.0,61,0.00,,,0.07,1.000000,,2013-03-09 10:52:00,
2013-03-09 04:01:00,48.0,35.0,-100.00,SSW,211,3.0,6.0,61,0.00,,,0.07,1.000000,,2013-03-09 11:01:00,
2013-03-09 04:11:00,48.0,35.0,-100.00,SSW,211,3.0,6.0,61,0.00,,,0.07,1.000000,,2013-03-09 11:11:00,
2013-03-09 04:32:00,47.0,36.0,-100.00,ESE,116,6.0,8.0,66,0.00,,,0.07,1.000000,,2013-03-09 11:32:00,
2013-03-09 04:42:00,47.0,36.0,-100.00,ESE,116,6.0,8.0,66,0.00,,,0.07,1.000000,,2013-03-09 11:42:00,
2013-03-09 04:52:00,47.0,36.0,-100.00,ESE,116,6.0,8.0,66,0.00,,,0.07,1.000000,,2013-03-09 11:52:00,
2013-03-09 05:01:00,47.0,36.0,-100.00,ESE,116,6.0,8.0,66,0.00,,,0.07,1.000000,,2013-03-09 12:01:00,
2013-03-09 05:11:00,47.0,36.0,-100.00,ESE,116,6.0,8.0,66,0.00,,,0.07,1.000000,,2013-03-09 12:11:00,
2013-03-09 05:32:00,46.0,35.0,-100.00,South,183,4.0,8.0,66,0.00,,,0.07,1.000000,,2013-03-09 12:32:00,
2013-03-09 05:42:00,46.0,35.0,-100.00,South,183,4.0,8.0,66,0.00,,,0.07,1.000000,,2013-03-09 12:42:00,
2013-03-09 05:52:00,46.0,35.0,-100.00,South,183,4.0,8.0,66,0.00,,,0.07,1.000000,,2013-03-09 12:52:00,
2013-03-09 06:02:00,46.0,35.0,-100.00,South,183,4.0,8.0,66,0.00,,,0.07,1.000000,,2013-03-09 13:02:00,
2013-03-09 06:11:00,46.0,35.0,-100.00,South,183,4.0,8.0,66,0.00,,,0.07,1.000000,,2013-03-09 13:11:00,
2013-03-09 06:32:00,45.0,35.0,-100.00,ESE,112,7.0,10.0,69,0.00,,,0.07,1.000000,,2013-03-09 13:32:00,
2013-03-09 06:42:00,45.0,35.0,-100.00,ESE,112,7.0,10.0,69,0.00,,,0.07,1.000000,,2013-03-09 13:42:00,
2013-03-09 06:52:00,45.0,35.0,-100.00,ESE,112,7.0,10.0,69,0.00,,,0.07,1.000000,,2013-03-09 13:52:00,
2013-03-09 07:01:00,45.0,35.0,-100.00,ESE,112,7.0,10.0,69,0.00,,,0.07,1.000000,,2013-03-09 14:01:00,
2013-03-09 07:11:00,45.0,35.0,-100.00,ESE,112,7.0,10.0,69,0.00,,,0.07,1.000000,,2013-03-09 14:11:00,
2013-03-09 07:32:00,47.0,36.0,-100.00,ESE,120,6.0,9.0,65,0.00,,,0.07,5.000000,,2013-03-09 14:32:00,
2013-03-09 07:42:00,47.0,36.0,-100.00,ESE,120,6.0,9.0,65,0.00,,,0.07,5.000000,,2013-03-09 14:42:00,
2013-03-09 07:52:00,47.0,36.0,-100.00,ESE,120,6.0,9.0,65,0.00,,,0.07,5.000000,,2013-03-09 14:52:00,
2013-03-09 08:01:00,47.0,36.0,-100.00,ESE,120,6.0,9.0,65,0.00,,,0.07,5.000000,,2013-03-09 15:01:00,
2013-03-09 08:11:00,47.0,36.0,-100.00,ESE,120,6.0,9.0,65,0.00,,,0.07,5.000000,,2013-03-09 15:11:00,
2013-03-09 08:42:00,51.0,37.0,-100.00,ESE,104,4.0,9.0,59,0.00,,,0.07,129.000000,,2013-03-09 15:42:00,
2013-03-09 08:52:00,51.0,37.0,-100.00,ESE,104,4.0,9.0,59,0.00,,,0.07,129.000000,,2013-03-09 15:52:00,
2013-03-09 09:01:00,51.0,37.0,-100.00,ESE,104,4.0,9.0,59,0.00,,,0.07,129.000000,,2013-03-09 16:01:00,
2013-03-09 09:11:00,51.0,37.0,-100.00,ESE,104,4.0,9.0,59,0.00,,,0.07,129.000000,,2013-03-09 16:11:00,
2013-03-09 09:32:00,56.0,35.0,-100.00,South,174,8.0,10.0,45,0.00,,,0.07,360.000000,,2013-03-09 16:32:00,
2013-03-09 09:42:00,56.0,35.0,-100.00,South,174,8.0,10.0,45,0.00,,,0.07,360.000000,,2013-03-09 16:42:00,
2013-03-09 09:52:00,56.0,35.0,-100.00,South,174,8.0,10.0,45,0.00,,,0.07,360.000000,,2013-03-09 16:52:00,
2013-03-09 10:01:00,56.0,35.0,-100.00,South,174,8.0,10.0,45,0.00,,,0.07,360.000000,,2013-03-09 17:01:00,
2013-03-09 10:11:00,56.0,35.0,-100.00,South,174,8.0,10.0,45,0.00,,,0.07,360.000000,,2013-03-09 17:11:00,
2013-03-09 10:32:00,59.0,35.0,-100.00,WSW,246,8.0,13.0,41,0.00,,,0.06,570.000000,,2013-03-09 17:32:00,
2013-03-09 10:42:00,59.0,35.0,-100.00,WSW,246,8.0,13.0,41,0.00,,,0.06,570.000000,,2013-03-09 17:42:00,
2013-03-09 10:52:00,59.0,35.0,-100.00,WSW,246,8.0,13.0,41,0.00,,,0.06,570.000000,,2013-03-09 17:52:00,
2013-03-09 11:01:00,59.0,35.0,-100.00,WSW,246,8.0,13.0,41,0.00,,,0.06,570.000000,,2013-03-09 18:01:00,
2013-03-09 11:11:00,59.0,35.0,-100.00,WSW,246,8.0,13.0,41,0.00,,,0.06,570.000000,,2013-03-09 18:11:00,
2013-03-09 11:32:00,61.0,38.0,-100.00,West,267,9.0,16.0,43,0.00,,,0.01,740.000000,,2013-03-09 18:32:00,
2013-03-09 11:42:00,61.0,38.0,-100.00,West,267,9.0,16.0,43,0.00,,,0.01,740.000000,,2013-03-09 18:42:00,
2013-03-09 11:52:00,61.0,38.0,-100.00,West,267,9.0,16.0,43,0.00,,,0.01,740.000000,,2013-03-09 18:52:00,
2013-03-09 12:01:00,61.0,38.0,-100.00,West,267,9.0,16.0,43,0.00,,,0.01,740.000000,,2013-03-09 19:01:00,
2013-03-09 12:11:00,61.0,38.0,-100.00,West,267,9.0,16.0,43,0.00,,,0.01,740.000000,,2013-03-09 19:11:00,
2013-03-09 12:42:00,64.0,39.0,-100.00,WNW,282,13.0,20.0,39,0.00,,,0.00,847.000000,,2013-03-09 19:42:00,
2013-03-09 12:52:00,64.0,39.0,-100.00,WNW,282,13.0,20.0,39,0.00,,,0.00,847.000000,,2013-03-09 19:52:00,
2013-03-09 13:01:00,64.0,39.0,-100.00,WNW,282,13.0,20.0,39,0.00,,,0.00,847.000000,,2013-03-09 20:01:00,
2013-03-09 13:11:00,64.0,39.0,-100.00,WNW,282,13.0,20.0,39,0.00,,,0.00,847.000000,,2013-03-09 20:11:00,
2013-03-09 13:42:00,66.0,36.0,-100.00,WNW,290,13.0,23.0,33,0.00,,,0.00,909.000000,,2013-03-09 20:42:00,
2013-03-09 13:52:00,66.0,36.0,-100.00,WNW,290,13.0,23.0,33,0.00,,,0.00,909.000000,,2013-03-09 20:52:00,
2013-03-09 14:01:00,66.0,36.0,-100.00,WNW,290,13.0,23.0,33,0.00,,,0.00,909.000000,,2013-03-09 21:01:00,
2013-03-09 14:11:00,66.0,36.0,-100.00,WNW,290,13.0,23.0,33,0.00,,,0.00,909.000000,,2013-03-09 21:11:00,
2013-03-09 14:32:00,67.0,36.0,-100.00,West,279,12.0,23.0,32,0.00,,,0.00,833.000000,,2013-03-09 21:32:00,
2013-03-09 14:42:00,67.0,36.0,-100.00,West,279,12.0,23.0,32,0.00,,,0.00,833.000000,,2013-03-09 21:42:00,
2013-03-09 14:52:00,67.0,36.0,-100.00,West,279,12.0,23.0,32,0.00,,,0.00,833.000000,,2013-03-09 21:52:00,
2013-03-09 15:01:00,67.0,36.0,-100.00,West,279,12.0,23.0,32,0.00,,,0.00,833.000000,,2013-03-09 22:01:00,
2013-03-09 15:11:00,67.0,36.0,-100.00,West,279,12.0,23.0,32,0.00,,,0.00,833.000000,,2013-03-09 22:11:00,
2013-03-09 15:42:00,69.0,36.0,-100.00,West,273,11.0,22.0,30,0.00,,,0.00,749.000000,,2013-03-09 22:42:00,
2013-03-09 15:52:00,69.0,36.0,-100.00,West,273,11.0,22.0,30,0.00,,,0.00,749.000000,,2013-03-09 22:52:00,
2013-03-09 16:01:00,69.0,36.0,-100.00,West,273,11.0,22.0,30,0.00,,,0.00,749.000000,,2013-03-09 23:01:00,
2013-03-09 16:11:00,69.0,36.0,-100.00,West,273,11.0,22.0,30,0.00,,,0.00,749.000000,,2013-03-09 23:11:00,
2013-03-09 16:32:00,69.0,35.0,-100.00,West,275,12.0,20.0,29,0.00,,,0.00,547.000000,,2013-03-09 23:32:00,
2013-03-09 16:42:00,69.0,35.0,-100.00,West,275,12.0,20.0,29,0.00,,,0.00,547.000000,,2013-03-09 23:42:00,
2013-03-09 16:52:00,69.0,35.0,-100.00,West,275,12.0,20.0,29,0.00,,,0.00,547.000000,,2013-03-09 23:52:00,
2013-03-09 17:01:00,69.0,35.0,-100.00,West,275,12.0,20.0,29,0.00,,,0.00,547.000000,,2013-03-10 00:01:00,
2013-03-09 17:11:00,69.0,35.0,-100.00,West,275,12.0,20.0,29,0.00,,,0.00,547.000000,,2013-03-10 00:11:00,
2013-03-09 17:32:00,68.0,36.0,-100.00,West,264,10.0,19.0,31,0.00,,,0.00,346.000000,,2013-03-10 00:32:00,
2013-03-09 17:43:00,68.0,36.0,-100.00,West,264,10.0,19.0,31,0.00,,,0.00,346.000000,,2013-03-10 00:43:00,
2013-03-09 17:52:00,68.0,36.0,-100.00,West,264,10.0,19.0,31,0.00,,,0.00,346.000000,,2013-03-10 00:52:00,
2013-03-09 18:01:00,68.0,36.0,-100.00,West,264,10.0,19.0,31,0.00,,,0.00,346.000000,,2013-03-10 01:01:00,
2013-03-09 18:11:00,68.0,36.0,-100.00,West,264,10.0,19.0,31,0.00,,,0.00,346.000000,,2013-03-10 01:11:00,
2013-03-09 18:42:00,66.0,34.0,-100.00,WNW,298,7.0,17.0,31,0.00,,,-99.99,85.000000,,2013-03-10 01:42:00,
2013-03-09 18:52:00,66.0,34.0,-100.00,WNW,298,7.0,17.0,31,0.00,,,-99.99,85.000000,,2013-03-10 01:52:00,
2013-03-09 19:01:00,66.0,34.0,-100.00,WNW,298,7.0,17.0,31,0.00,,,-99.99,85.000000,,2013-03-10 02:01:00,
2013-03-09 19:11:00,66.0,34.0,-100.00,WNW,298,7.0,17.0,31,0.00,,,-99.99,85.000000,,2013-03-10 02:11:00,
2013-03-09 19:42:00,65.0,36.0,-100.00,NW,309,6.0,11.0,34,0.00,,,-99.99,7.000000,,2013-03-10 02:42:00,
2013-03-09 19:52:00,65.0,36.0,-100.00,NW,309,6.0,11.0,34,0.00,,,-99.99,7.000000,,2013-03-10 02:52:00,
2013-03-09 20:01:00,65.0,36.0,-100.00,NW,309,6.0,11.0,34,0.00,,,-99.99,7.000000,,2013-03-10 03:01:00,
2013-03-09 20:11:00,65.0,36.0,-100.00,NW,309,6.0,11.0,34,0.00,,,-99.99,7.000000,,2013-03-10 03:11:00,
2013-03-09 20:32:00,62.0,39.0,-100.00,WSW,253,4.0,9.0,42,0.00,,,0.00,1.000000,,2013-03-10 03:32:00,
2013-03-09 20:42:00,62.0,39.0,-100.00,WSW,253,4.0,9.0,42,0.00,,,0.00,1.000000,,2013-03-10 03:42:00,
2013-03-09 20:52:00,62.0,39.0,-100.00,WSW,253,4.0,9.0,42,0.00,,,0.00,1.000000,,2013-03-10 03:52:00,
2013-03-09 21:01:00,62.0,39.0,-100.00,WSW,253,4.0,9.0,42,0.00,,,0.00,1.000000,,2013-03-10 04:01:00,
2013-03-09 21:11:00,62.0,39.0,-100.00,WSW,253,4.0,9.0,42,0.00,,,0.00,1.000000,,2013-03-10 04:11:00,
2013-03-09 21:32:00,61.0,40.0,-100.00,WNW,297,5.0,6.0,46,0.00,,,0.00,1.000000,,2013-03-10 04:32:00,
2013-03-09 21:42:00,61.0,40.0,-100.00,WNW,297,5.0,6.0,46,0.00,,,0.00,1.000000,,2013-03-10 04:42:00,
2013-03-09 21:52:00,61.0,40.0,-100.00,WNW,297,5.0,6.0,46,0.00,,,0.00,1.000000,,2013-03-10 04:52:00,
2013-03-09 22:01:00,61.0,40.0,-100.00,WNW,297,5.0,6.0,46,0.00,,,0.00,1.000000,,2013-03-10 05:01:00,
2013-03-09 22:11:00,61.0,40.0,-100.00,WNW,297,5.0,6.0,46,0.00,,,0.00,1.000000,,2013-03-10 05:11:00,
2013-03-09 22:32:00,62.0,38.0,-100.00,WNW,292,8.0,10.0,41,0.00,,,0.00,1.000000,,2013-03-10 05:32:00,
2013-03-09 22:42:00,62.0,38.0,-100.00,WNW,292,8.0,10.0,41,0.00,,,0.00,1.000000,,2013-03-10 05:42:00,
2013-03-09 22:52:00,62.0,38.0,-100.00,WNW,292,8.0,10.0,41,0.00,,,0.00,1.000000,,2013-03-10 05:52:00,
2013-03-09 23:01:00,62.0,38.0,-100.00,WNW,292,8.0,10.0,41,0.00,,,0.00,1.000000,,2013-03-10 06:01:00,
2013-03-09 23:11:00,62.0,38.0,-100.00,WNW,292,8.0,10.0,41,0.00,,,0.00,1.000000,,2013-03-10 06:11:00,
2013-03-09 23:32:00,59.0,38.0,-100.00,NW,316,5.0,9.0,46,0.00,,,0.00,1.000000,,2013-03-10 06:32:00,
2013-03-09 23:42:00,59.0,38.0,-100.00,NW,316,5.0,9.0,46,0.00,,,0.00,1.000000,,2013-03-10 06:42:00,
2013-03-09 23:52:00,59.0,38.0,-100.00,NW,316,5.0,9.0,46,0.00,,,0.00,1.000000,,2013-03-10 06:52:00,